CAPE
0 0 0 0 0 0 0 0 0 0 0 0 0 0 0 0 0 0 0 0 0 0
0 0 0 0 0 0 0 0 0 0 0 0 0 0 0 0 0 0 0 0 1 1
1 0 0 0 0 0 0 0 0 0 0 0 0 0 0 0 0 0 0 1 1 0
17 0 0 1 0 0 0 0 0 0 0 0 0 0 0 0 0 0 0 0 0 0
0 5 0 3 0 0 0 0 0 0 0 0 0 0 0 0 0 0 0 0 0 0
0 0 0 0 0 0 0 0 0 0 0 0 0 0 0 0 0 0 0 0 0 1
0 0 0 0 0 0 0 0 0 0 0 0 0 0 0 0 0 0 0 0 0 0
0 0 0 0 0 0 0 0 0 0 0 0 0 0 0 0 0 0 0 0 0 0
0 0 0 0 0 0 1 0 0 0 0 0 0 0 0 0 0 0 0 0 0 0
0 0 0 0 0 0 0 1 0 0 0 0 0 0 0 0 0 0 0 0 0 0
0 0 0 0 0 0 0 0 0 0 0 0 0 0 0 0 0 0 0 0 0 0
0 0 0 0 0 0 0 0 0 0 0 0 0 0 0 0 0 0 0 1 1 0
0 0 0 0 0 0 0 0 0 0 0 0 0 0 0 1 0 0 0 2 2 0
0 0 0 0 0 0 0 0 0 0 0 0 1 1 1 2 1 0 1 1 1 0
CIN
0 0 0 0 0 0 0 0 0 0 0 0 0 0 0 0 0 0 0 0 0 0
0 0 0 0 0 0 0 0 0 0 0 0 0 0 0 0 0 0 0 0 -4 -4
-126 0 0 0 0 0 0 0 0 0 0 0 0 0 0 0 0 0 0 -2 -2 -2
-303 -26 -164 -229 0 0 0 0 0 0 0 0 0 0 0 0 0 0 -1 0 -1 0
0 -278 -10 -357 0 0 0 0 0 0 0 0 0 0 0 0 -1 -1 0 0 0 0
0 0 0 0 0 0 0 0 0 0 0 0 0 0 0 -2 0 0 0 0 0 0
0 0 0 0 0 0 0 0 0 0 0 0 0 0 0 -1 0 -1 0 0 0 0
0 0 0 0 0 -2 -4 0 0 0 0 0 0 0 0 0 0 0 0 0 0 0
0 0 0 0 0 0 -10 0 0 0 0 0 0 0 0 0 0 0 0 0 0 0
0 0 0 0 0 0 0 -16 -5 0 0 0 0 0 0 0 0 0 0 0 0 0
0 0 0 0 0 0 0 0 0 0 0 0 0 0 0 0 0 0 0 0 0 0
0 0 0 0 0 0 0 0 0 0 0 0 0 0 0 0 0 0 0 0 0 0
0 0 0 0 0 0 0 0 0 0 0 0 0 0 0 0 0 0 0 0 0 0
0 0 0 0 0 0 0 0 0 0 0 0 0 0 0 0 0 0 0 0 0 0
Wind_Speed
28 27 27 27 26 26 24 22 21 22 22 22 21 21 21 21 21 21 19 20 19 19
29 28 28 28 28 27 26 24 22 22 23 23 24 23 23 23 22 22 21 22 20 20
29 30 29 29 30 28 27 26 25 24 24 25 24 24 24 23 22 23 22 21 20 19
27 30 31 31 31 28 27 27 27 26 26 26 26 25 23 23 23 23 22 21 20 20
27 29 30 27 26 26 27 27 26 27 28 27 27 25 24 23 23 22 22 21 20 20
29 30 29 26 27 28 27 26 25 25 25 26 26 26 24 23 22 22 22 21 21 20
30 30 28 29 29 29 27 27 26 25 25 24 24 24 24 23 23 23 22 21 20 20
31 31 30 32 30 28 28 28 27 26 25 25 25 24 24 24 25 25 25 22 22 21
35 34 33 33 32 31 29 28 28 27 26 26 26 25 26 26 27 27 26 25 23 21
37 38 36 34 34 34 33 31 31 31 31 31 30 27 27 27 27 28 27 25 23 22
39 39 39 38 36 36 35 34 34 34 34 33 32 29 28 26 26 26 25 24 22 21
40 39 37 37 37 36 34 34 34 34 33 33 32 27 26 25 25 24 23 22 20 18
42 39 37 37 36 34 33 34 31 31 30 29 29 26 24 23 23 23 21 20 19 18
41 39 37 34 33 32 32 32 31 31 29 27 25 23 21 20 20 21 21 20 19 18
Wind_Direction
251 254 252 253 256 257 258 253 255 249 250 251 255 257 262 266 268 272 271 275 278 284
252 249 252 251 252 254 256 259 257 255 252 252 256 259 262 264 266 270 273 277 278 279
250 253 254 257 252 252 253 254 257 257 256 257 256 258 258 262 265 270 273 276 278 278
256 256 259 257 257 249 252 254 252 256 257 258 258 257 255 259 268 268 271 274 275 276
263 263 261 255 244 253 252 252 252 255 255 255 256 257 257 259 264 263 268 270 274 277
267 266 263 253 258 257 255 251 253 250 247 246 251 256 255 257 260 264 267 270 274 276
271 268 264 265 265 262 258 255 252 248 248 245 250 254 258 260 262 268 270 271 272 275
274 272 269 268 266 264 261 259 255 252 252 252 252 255 258 261 264 269 274 273 274 276
277 274 271 269 267 266 262 259 256 253 252 255 256 257 259 262 265 268 271 274 276 278
280 276 273 271 268 265 264 263 260 257 257 259 260 259 260 260 265 267 269 272 274 278
284 278 275 273 269 267 265 263 262 262 261 261 262 260 260 259 265 268 269 270 271 272
284 279 276 274 272 269 266 265 264 264 262 261 263 259 258 258 264 266 268 270 270 269
281 278 277 275 272 271 268 267 265 263 261 261 262 260 256 257 262 263 265 270 272 271
282 276 276 276 272 269 267 266 265 264 264 263 262 259 254 256 259 262 267 269 271 274